Location: Hilton Head Island
(32.2163°N, 80.7526°W)
Time: 02:45:16
(UTC-04:00)

Vanguard 2 Rocket - Pass Details

Date: 19 February 2026
Orbit: 553 x 3286 km, 32.9° (Epoch: 9 March)

Event Time Altitude Azimuth Distance (km) Brightness Sun altitude
Rises 18:21:28 0° 285° (WNW) 5,857 12.4 -2.7°
Reaches altitude 10° 18:26:15 10° 280° (W) 4,378 11.8 -3.6°
Maximum altitude 18:36:04 39° 216° (SW) 1,823 8.9 -5.7°
Drops below altitude 10° 18:41:57 10° 148° (SSE) 2,626 9.0 -6.9°
Sets 18:44:09 0° 140° (SE) 3,334 9.5 -7.4°
